Location: Coupvray
(48.8929°N, 2.7967°E)
Time: 23:37:57
(UTC+00:00)

Cosmos 1241 Rocket - Visible Passes

Search period start: 29 October 2020 00:00
Search period end: 08 November 2020 00:00
Orbit: 930 x 1017 km, 65.8° (Epoch: 29 October)

Date Brightness Start Highest point End Pass type
(mag) Time Alt. Az. Time Alt. Az. Time Alt. Az.
29 Oct 5.8 17:53:01 10° WSW 17:58:54 37° NW 18:04:56 10° NNE visible
29 Oct 6.5 19:44:04 10° NW 19:48:31 19° N 19:50:50 16° NNE visible
29 Oct 7.0 21:33:57 10° NNW 21:35:25 15° NNW 21:35:25 15° NNW visible
30 Oct 6.2 18:19:15 10° W 18:24:37 27° NNW 18:30:06 10° NNE visible
30 Oct 6.5 20:10:22 10° NW 20:14:37 18° N 20:15:11 18° N visible
30 Oct 7.2 21:59:16 10° NNW 21:59:46 12° NNW 21:59:46 12° NNW visible
31 Oct 5.3 16:55:05 10° WSW 17:01:16 51° NW 17:07:38 10° NNE visible
31 Oct 6.4 18:45:42 10° WNW 18:50:31 21° NNW 18:54:56 12° NNE visible
31 Oct 6.6 20:36:17 10° NW 20:39:31 18° N 20:39:31 18° N visible
01 Nov 5.8 17:21:03 10° W 17:26:50 34° NW 17:32:45 10° NNE visible
01 Nov 6.5 19:12:10 10° NW 19:16:33 18° N 19:19:16 15° NNE visible
01 Nov 6.8 21:01:49 10° NNW 21:03:52 17° NNW 21:03:52 17° NNW visible
02 Nov 6.2 17:47:21 10° W 17:52:36 25° NNW 17:57:56 10° NNE visible
02 Nov 6.4 19:38:23 10° NW 19:42:39 18° N 19:43:37 17° NNE visible
02 Nov 7.0 21:27:06 10° NNW 21:28:13 14° NNW 21:28:13 14° NNW visible
03 Nov 6.4 18:13:50 10° WNW 18:18:32 20° NNW 18:23:18 10° NNE visible
03 Nov 6.5 20:04:13 10° NNW 20:07:58 19° N 20:07:58 19° N visible
03 Nov 7.2 21:52:15 10° NNW 21:52:34 11° NNW 21:52:34 11° NNW visible
04 Nov 5.9 16:49:05 10° W 16:54:46 32° NNW 17:00:34 10° NNE visible
04 Nov 6.5 18:40:15 10° NW 18:44:35 18° N 18:47:43 13° NNE visible
04 Nov 6.6 20:29:41 10° NNW 20:32:19 19° N 20:32:19 19° N visible
05 Nov 6.2 17:15:27 10° WNW 17:20:35 24° NNW 17:25:48 10° NNE visible
05 Nov 6.3 19:06:23 10° NW 19:10:42 18° N 19:12:04 17° NNE visible
05 Nov 6.8 20:54:56 10° NNW 20:56:40 17° NNW 20:56:40 17° NNW visible
06 Nov 6.4 17:41:57 10° WNW 17:46:33 20° NNW 17:51:12 10° NNE visible
06 Nov 6.3 19:32:07 10° NNW 19:36:26 20° N 19:36:26 20° N visible
06 Nov 7.0 21:20:02 10° NNW 21:21:02 14° NNW 21:21:02 14° NNW visible
07 Nov 6.4 18:08:20 10° NW 18:12:37 18° N 18:16:12 12° NNE visible
07 Nov 6.3 19:57:32 10° NNW 20:00:48 21° N 20:00:48 21° N visible
07 Nov 7.3 21:45:10 10° NW 21:45:24 11° NNW 21:45:24 11° NNW visible
